• In Germany
  • List of Countries
  • For 7 days
  • Water Temperature
  • Satellite Maps
  • Weather Map
  • Weather Widgets
  • user-avatar
    Login

    Hourly Weather Mykhnivka

    Today, 24 September, Monday

    Time Temperature Precipitation Wind Pressure Humidity
    00:00 +12°C° 0 mm 2 mps 756 mmHg 70%
    01:00 +12°C° 0 mm 2 mps 755 mmHg 71%
    02:00 +10°C° 0 mm 2 mps 755 mmHg 72%
    03:00 +10°C° 0 mm 3 mps 755 mmHg 72%
    04:00 +10°C° 0 mm 3 mps 754 mmHg 71%
    05:00 +10°C° 0 mm 4 mps 754 mmHg 71%
    06:00 +12°C° 0 mm 5 mps 753 mmHg 65%
    07:00 +12°C° 0 mm 7 mps 753 mmHg 59%
    08:00 +15°C° 0 mm 8 mps 752 mmHg 52%
    09:00 +16°C° 0 mm 9 mps 752 mmHg 50%
    10:00 +17°C° 0 mm 9 mps 751 mmHg 47%
    11:00 +18°C° 0 mm 9 mps 751 mmHg 44%
    12:00 +18°C° 0.7 mm 8 mps 750 mmHg 48%
    13:00 +18°C° 0.7 mm 7 mps 749 mmHg 53%
    14:00 +19°C° 0.7 mm 6 mps 749 mmHg 58%
    15:00 +17°C° 3.9 mm 6 mps 749 mmHg 67%
    16:00 +16°C° 3.9 mm 6 mps 749 mmHg 76%
    17:00 +15°C° 3.9 mm 6 mps 748 mmHg 85%
    18:00 +13°C° 3.1 mm 6 mps 749 mmHg 86%
    19:00 +11°C° 3.1 mm 6 mps 749 mmHg 86%
    20:00 +10°C° 3.1 mm 6 mps 750 mmHg 87%
    21:00 +10°C° 0.5 mm 5 mps 750 mmHg 85%
    22:00 +10°C° 0.5 mm 5 mps 750 mmHg 83%
    23:00 +9°C° 0.5 mm 5 mps 751 mmHg 81%

    Tomorrow, 25 September, Tuesday

    Time Temperature Precipitation Wind Pressure Humidity
    00:00 +9°C° 0 mm 5 mps 751 mmHg 82%
    01:00 +9°C° 0 mm 5 mps 751 mmHg 82%
    02:00 +9°C° 0 mm 5 mps 751 mmHg 82%
    03:00 +8°C° 0 mm 5 mps 752 mmHg 84%
    04:00 +8°C° 0 mm 5 mps 752 mmHg 85%
    05:00 +7°C° 0 mm 5 mps 752 mmHg 87%
    06:00 +8°C° 0 mm 5 mps 752 mmHg 84%
    07:00 +8°C° 0 mm 5 mps 752 mmHg 81%
    08:00 +9°C° 0 mm 6 mps 752 mmHg 78%
    09:00 +9°C° 0.1 mm 6 mps 753 mmHg 77%
    10:00 +9°C° 0.1 mm 6 mps 753 mmHg 76%
    11:00 +9°C° 0.1 mm 6 mps 754 mmHg 75%
    12:00 +9°C° 0.3 mm 6 mps 754 mmHg 75%
    13:00 +10°C° 0.3 mm 6 mps 754 mmHg 75%
    14:00 +10°C° 0.3 mm 6 mps 755 mmHg 75%
    15:00 +9°C° 0.5 mm 6 mps 755 mmHg 77%
    16:00 +9°C° 0.5 mm 6 mps 756 mmHg 78%
    17:00 +8°C° 0.5 mm 7 mps 756 mmHg 80%
    18:00 +8°C° 0.1 mm 6 mps 757 mmHg 79%
    19:00 +7°C° 0.1 mm 6 mps 758 mmHg 78%
    20:00 +7°C° 0.1 mm 6 mps 759 mmHg 77%
    21:00 +7°C° 0 mm 5 mps 759 mmHg 78%
    22:00 +6°C° 0 mm 5 mps 759 mmHg 79%
    23:00 +6°C° 0 mm 4 mps 760 mmHg 80%

    Day after tomorrow, 26 September, Wednesday

    Time Temperature Precipitation Wind Pressure Humidity
    00:00 +5°C° 0 mm 4 mps 760 mmHg 82%
    01:00 +5°C° 0 mm 4 mps 761 mmHg 84%
    02:00 +4°C° 0 mm 3 mps 761 mmHg 86%
    03:00 +4°C° 0 mm 3 mps 762 mmHg 87%
    04:00 +4°C° 0 mm 3 mps 762 mmHg 88%
    05:00 +4°C° 0 mm 3 mps 763 mmHg 89%
    06:00 +4°C° 0 mm 4 mps 763 mmHg 85%
    07:00 +5°C° 0 mm 4 mps 764 mmHg 80%
    08:00 +6°C° 0 mm 5 mps 764 mmHg 76%
    09:00 +7°C° 0 mm 5 mps 765 mmHg 70%
    10:00 +8°C° 0 mm 5 mps 765 mmHg 63%
    11:00 +9°C° 0 mm 5 mps 765 mmHg 57%
    12:00 +10°C° 0.1 mm 5 mps 765 mmHg 53%
    13:00 +10°C° 0.1 mm 5 mps 765 mmHg 50%
    14:00 +10°C° 0.1 mm 5 mps 765 mmHg 47%
    15:00 +11°C° 0 mm 4 mps 765 mmHg 48%
    16:00 +10°C° 0 mm 4 mps 765 mmHg 50%
    17:00 +9°C° 0 mm 3 mps 765 mmHg 51%
    18:00 +8°C° 0 mm 3 mps 765 mmHg 53%
    19:00 +7°C° 0 mm 3 mps 766 mmHg 56%
    20:00 +6°C° 0 mm 2 mps 766 mmHg 58%
    21:00 +6°C° 0 mm 2 mps 766 mmHg 59%
    22:00 +6°C° 0 mm 2 mps 766 mmHg 59%
    23:00 +5°C° 0 mm 2 mps 766 mmHg 60%

    27 September, Thursday

    Time Temperature Precipitation Wind Pressure Humidity
    00:00 +5°C° 0 mm 2 mps 766 mmHg 62%
    01:00 +4°C° 0 mm 3 mps 765 mmHg 63%
    02:00 +4°C° 0 mm 3 mps 765 mmHg 65%
    03:00 +4°C° 0 mm 3 mps 765 mmHg 66%
    04:00 +4°C° 0 mm 4 mps 764 mmHg 66%
    05:00 +5°C° 0 mm 4 mps 764 mmHg 67%
    06:00 +6°C° 0 mm 5 mps 763 mmHg 64%
    07:00 +7°C° 0 mm 6 mps 763 mmHg 61%
    08:00 +8°C° 0 mm 7 mps 763 mmHg 57%
    09:00 +10°C° 0 mm 7 mps 762 mmHg 53%
    10:00 +11°C° 0 mm 7 mps 762 mmHg 49%
    11:00 +12°C° 0 mm 8 mps 762 mmHg 45%
    12:00 +13°C° 0 mm 8 mps 761 mmHg 45%
    13:00 +15°C° 0 mm 8 mps 760 mmHg 45%
    14:00 +16°C° 0 mm 8 mps 760 mmHg 44%
    15:00 +15°C° 0 mm 7 mps 759 mmHg 48%
    16:00 +15°C° 0 mm 5 mps 759 mmHg 51%
    17:00 +14°C° 0 mm 4 mps 759 mmHg 55%
    18:00 +13°C° 0 mm 4 mps 759 mmHg 57%
    19:00 +13°C° 0 mm 4 mps 759 mmHg 59%
    20:00 +12°C° 0 mm 4 mps 759 mmHg 60%
    21:00 +12°C° 0 mm 4 mps 759 mmHg 62%
    22:00 +12°C° 0 mm 4 mps 759 mmHg 64%
    23:00 +12°C° 0 mm 4 mps 759 mmHg 66%

    28 September, Friday

    Time Temperature Precipitation Wind Pressure Humidity
    00:00 +11°C° 0 mm 3 mps 759 mmHg 70%
    01:00 +11°C° 0 mm 3 mps 759 mmHg 74%
    02:00 +10°C° 0 mm 3 mps 758 mmHg 78%
    03:00 +10°C° 0 mm 3 mps 758 mmHg 80%
    04:00 +10°C° 0 mm 3 mps 758 mmHg 82%
    05:00 +9°C° 0 mm 3 mps 758 mmHg 84%
    06:00 +11°C° 0 mm 4 mps 757 mmHg 81%
    07:00 +12°C° 0 mm 4 mps 757 mmHg 77%
    08:00 +13°C° 0 mm 5 mps 757 mmHg 74%
    09:00 +15°C° 0 mm 5 mps 757 mmHg 69%
    10:00 +17°C° 0 mm 6 mps 757 mmHg 65%
    11:00 +20°C° 0 mm 6 mps 757 mmHg 60%
    12:00 +20°C° 0 mm 6 mps 756 mmHg 58%
    13:00 +21°C° 0 mm 6 mps 756 mmHg 57%
    14:00 +22°C° 0 mm 6 mps 756 mmHg 55%
    15:00 +21°C° 0 mm 5 mps 756 mmHg 58%
    16:00 +20°C° 0 mm 4 mps 755 mmHg 62%
    17:00 +19°C° 0 mm 3 mps 755 mmHg 66%
    18:00 +18°C° 0 mm 3 mps 756 mmHg 70%
    19:00 +17°C° 0 mm 2 mps 756 mmHg 74%
    20:00 +16°C° 0 mm 2 mps 756 mmHg 78%
    21:00 +16°C° 0 mm 2 mps 756 mmHg 81%
    22:00 +15°C° 0 mm 2 mps 756 mmHg 84%
    23:00 +15°C° 0 mm 2 mps 757 mmHg 87%

    29 September, Saturday

    Time Temperature Precipitation Wind Pressure Humidity
    00:00 +15°C° 0 mm 2 mps 757 mmHg 87%
    01:00 +15°C° 0 mm 2 mps 757 mmHg 87%
    02:00 +15°C° 0 mm 1 mps 757 mmHg 87%
    03:00 +14°C° 0 mm 2 mps 757 mmHg 87%
    04:00 +14°C° 0 mm 2 mps 757 mmHg 87%
    05:00 +14°C° 0 mm 2 mps 757 mmHg 87%
    06:00 +14°C° 0.2 mm 2 mps 757 mmHg 85%
    07:00 +14°C° 0.2 mm 2 mps 757 mmHg 84%
    08:00 +15°C° 0.2 mm 2 mps 757 mmHg 82%
    09:00 +15°C° 0.7 mm 2 mps 757 mmHg 83%
    10:00 +15°C° 0.7 mm 2 mps 757 mmHg 83%
    11:00 +14°C° 0.7 mm 3 mps 757 mmHg 84%
    12:00 +13°C° 0.8 mm 4 mps 756 mmHg 83%
    13:00 +13°C° 0.8 mm 5 mps 756 mmHg 83%
    14:00 +13°C° 0.8 mm 6 mps 756 mmHg 83%
    15:00 +11°C° 0.9 mm 6 mps 757 mmHg 83%
    16:00 +10°C° 0.9 mm 6 mps 757 mmHg 83%
    17:00 +9°C° 0.9 mm 7 mps 757 mmHg 83%
    18:00 +8°C° 0.6 mm 7 mps 758 mmHg 84%
    19:00 +8°C° 0.6 mm 6 mps 759 mmHg 84%
    20:00 +8°C° 0.6 mm 6 mps 759 mmHg 84%
    21:00 +8°C° 0.2 mm 6 mps 760 mmHg 84%
    22:00 +7°C° 0.2 mm 6 mps 760 mmHg 83%
    23:00 +7°C° 0.2 mm 5 mps 760 mmHg 82%
    Show more

    3.3.7123123